{"data":{"norad_id":65523,"epoch":"2026-05-25T03:25:41.248128Z","epoch_age_seconds":72956,"freshness":"FRESH","line1":"1 65523U 25200D   26145.14283852  .00003184  00000+0  22463-3 0  9996","line2":"2 65523  97.4497 214.7688 0001446 207.2326 152.8825 15.05645620 40634","mean_motion":15.0564562,"eccentricity":0.0001446,"inclination_deg":97.4497,"raan_deg":214.7688,"arg_perigee_deg":207.2326,"mean_anomaly_deg":152.8825,"bstar":0.00022463,"rev_number":4063,"period_min":95.640035136555,"perigee_km":548.52284942163,"apogee_km":550.52632915325,"semimajor_km":6927.6615892874,"source":"CELESTRAK","updated_at":"2026-05-25T13:38:20.846667Z"}}